Location: Buchdorf
(48.7842°N, 10.8275°E)
Time: 03:10:14
(UTC+00:00)

Cosmos 1850 Rocket - Pass Details

Date: 09 April 2020
Orbit: 754 x 786 km, 74.0° (Epoch: 26 May)

Event Time Altitude Azimuth Distance (km) Brightness Sun altitude
Exits shadow 20:24:22 21° 198° (SSW) 1,667 5.5 -21.7°
Maximum altitude 20:27:55 85° 112° (ESE) 764 3.8 -22.1°
Drops below altitude 10° 20:33:07 10° 24° (NNE) 2,291 6.7 -22.7°
Sets 20:35:30 0° 24° (NNE) 3,222 7.5 -23.0°
